AKDT,Max TemperatureF,Mean TemperatureF,Min TemperatureF,Max Dew PointF,MeanDew PointF,Min DewpointF,Max Humidity, Mean Humidity, Min Humidity, Max Sea Level PressureIn, Mean Sea Level PressureIn, Min Sea Level PressureIn, Max VisibilityMiles, Mean VisibilityMiles, Min VisibilityMiles, Max Wind SpeedMPH, Mean Wind SpeedMPH, Max Gust SpeedMPH,PrecipitationIn, CloudCover, Events, WindDirDegrees
2012-7-1,77,68,58,56,49,43,93,52,23,29.66,29.63,29.60,10,10,10,16,4,22,0.00,7,,265
2012-7-2,73,65,56,56,52,46,81,63,47,29.75,29.68,29.62,10,10,10,15,4,23,0.01,6,Rain-Thunderstorm,44
2012-7-3,67,61,54,55,52,46,97,79,48,29.65,29.62,29.60,10,9,2,9,3,,0.12,7,Rain,225
2012-7-4,64,58,52,51,46,41,86,64,36,29.80,29.74,29.67,10,10,10,9,3,,T,6,Rain,184
2012-7-5,73,60,47,50,45,40,89,56,23,29.84,29.81,29.78,10,10,10,16,3,,T,6,Rain,86
2012-7-6,76,64,52,50,48,42,89,56,33,29.88,29.84,29.81,10,10,10,13,2,20,0.00,5,,53
2012-7-7,76,66,55,55,49,45,80,55,28,29.84,29.78,29.70,10,10,10,14,4,,0.07,6,Rain,97
2012-7-8,66,59,52,52,45,34,94,63,31,29.98,29.89,29.81,10,10,9,9,6,16,0.08,6,Rain,175
2012-7-9,71,58,44,45,39,28,90,52,15,30.03,29.92,29.76,10,10,10,12,2,,T,4,,58
2012-7-10,66,60,54,53,43,38,93,56,32,29.80,29.71,29.66,10,10,10,10,6,,0.06,7,Rain,344
2012-7-11,72,62,51,52,46,39,94,60,26,29.88,29.83,29.77,10,10,10,9,3,,T,5,Rain,115
2012-7-12,73,61,48,44,41,39,74,47,21,29.81,29.78,29.75,10,10,10,9,3,,0.00,6,,276
2012-7-13,66,61,56,49,45,42,74,54,43,30.05,29.94,29.83,10,10,10,8,4,,0.01,7,Rain,243
2012-7-14,68,57,46,49,46,42,93,63,32,30.14,30.08,29.97,10,10,10,9,1,,T,6,Rain,77
2012-7-15,69,60,51,50,46,40,86,61,36,29.99,29.90,29.85,10,10,10,9,3,,0.01,7,Rain,209
2012-7-16,62,57,51,50,49,47,96,79,55,30.15,30.11,30.00,10,9,7,12,6,20,0.14,7,Rain,225
2012-7-17,63,56,49,49,43,39,93,63,34,30.16,30.11,30.03,10,10,10,14,5,20,0.00,6,,243
2012-7-18,58,54,50,50,47,45,93,81,57,30.04,29.99,29.94,10,10,7,6,1,,0.10,8,Rain,114
2012-7-19,58,54,50,54,51,48,100,92,72,29.98,29.94,29.90,10,5,1,7,2,,0.67,8,Rain,199
2012-7-20,64,57,49,52,49,47,97,80,58,29.95,29.89,29.77,10,8,5,8,3,,0.00,7,,87
2012-7-21,63,59,55,58,55,50,93,85,75,29.84,29.79,29.75,10,9,4,7,3,,0.19,8,Fog-Rain,9
2012-7-22,76,67,57,58,56,52,97,70,37,29.87,29.83,29.80,10,10,9,8,3,,0.04,7,Rain,37
2012-7-23,69,62,54,58,52,47,94,73,41,30.04,29.97,29.86,10,9,7,13,6,17,0.20,7,Rain,239
2012-7-24,66,60,53,53,52,49,97,79,53,30.16,30.12,30.05,10,8,3,8,4,,0.02,7,Rain,229
2012-7-25,74,65,55,54,52,49,90,68,38,30.19,30.12,29.99,10,10,10,8,2,,0.00,5,,60
2012-7-26,81,66,51,61,51,47,89,59,27,29.99,29.90,29.81,10,10,10,7,1,,0.00,3,,45
2012-7-27,76,68,60,55,52,51,78,58,35,29.92,29.87,29.82,10,10,10,13,6,,0.00,4,,254
2012-7-28,78,66,53,58,53,49,93,64,31,29.89,29.84,29.75,10,10,10,5,1,,0.00,5,Fog,137
2012-7-29,77,67,57,55,48,41,87,51,26,29.78,29.73,29.67,10,10,10,12,4,18,0.00,4,Fog,236
2012-7-30,67,58,48,53,49,45,90,66,41,29.84,29.75,29.71,10,10,10,12,4,,T,6,Rain,255
2012-7-31,71,57,43,48,45,41,96,64,30,29.90,29.83,29.71,10,10,10,6,1,,0.00,5,,52